Probability
0 0 0 0 0 0 0 0 0 0 0 0 0 0 0 0 0 0 0 0 0 0 0 0 0 0 0 0 0 0 0 0 0 0 0 0 0 0 0 0 0 0 0 0
0 0 0 0 0 0 0 0 0 0 0 0 0 0 0 0 0 0 0 0 0 0 0 0 0 0 0 0 0 0 0 0 0 0 0 0 0 0 0 0 0 0 0 0
0 0 0 0 0 0 0 0 0 0 0 0 0 0 0 0 0 0 0 0 0 0 0 0 0 0 0 0 0 0 0 0 0 0 0 0 0 0 0 0 0 0 0 0
0 0 0 0 0 0 0 0 0 0 0 0 0 0 0 0 0 0 0 0 0 0 0 0 0 0 0 0 0 0 0 0 0 0 0 0 0 0 0 0 0 0 0 0
0 0 0 0 0 0 0 0 0 0 0 0 0 0 0 0 0 0 0 0 0 0 0 0 0 0 0 0 0 0 0 0 0 0 0 0 0 0 0 0 0 0 0 0
0 0 0 0 0 0 0 0 0 0 0 0 0 0 0 0 0 0 0 0 0 0 0 0 0 0 0 0 0 0 0 0 0 0 0 0 0 0 0 0 0 0 0 0
0 0 0 0 0 0 0 0 0 0 0 0 0 0 0 0 0 0 0 0 0 0 0 0 0 0 0 0 0 0 0 0 0 0 0 0 0 0 0 0 0 0 0 0
0 0 0 0 0 0 0 0 0 0 0 0 0 0 0 0 0 0 0 0 0 0 0 0 0 0 0 0 0 0 0 0 0 0 0 0 0 0 0 0 0 0 0 0
0 0 0 0 0 0 0 0 0 0 0 0 0 0 0 0 0 0 0 0 0 0 0 0 0 0 0 0 0 0 0 0 0 0 0 0 0 0 0 0 0 0 0 0
0 0 0 0 0 0 0 0 0 0 0 0 0 0 0 0 0 0 0 0 0 0 0 0 0 0 0 0 0 0 0 0 0 0 0 0 0 0 0 0 0 0 0 0
0 0 0 0 0 0 0 0 0 0 0 0 0 0 0 0 0 0 0 0 0 0 0 0 0 0 0 0 0 0 0 0 0 0 0 0 0 0 0 0 0 0 0 0
0 0 0 0 0 0 0 0 0 0 0 0 0 0 0 0 0 0 0 0 0 0 0 0 0 0 0 0 0 0 0 0 0 0 0 0 0 0 0 0 0 0 0 0
0 0 0 0 0 0 0 0 0 0 0 0 0 0 0 0 0 0 0 0 0 0 0 0 0 0 0 0 0 0 0 0 0 0 0 0 0 0 0 0 0 0 0 0
0 0 0 0 0 0 0 0 0 0 0 0 0 0 0 0 0 0 0 0 0 0 0 0 0 0 0 0 0 0 0 0 0 0 0 0 0 0 0 0 0 0 0 0
0 0 0 0 0 0 0 0 0 0 0 0 0 0 0 0 0 0 0 0 0 0 0 0 0 0 0 0 0 0 0 0 0 0 0 0 0 0 0 0 0 0 0 0
0 0 0 0 0 0 0 0 0 0 0 0 0 0 0 0 0 0 0 0 0 0 0 0 0 0 0 0 0 0 0 0 0 0 0 0 0 0 0 0 0 0 0 0
0 0 0 0 0 0 0 0 0 0 0 0 0 0 0 0 0 0 0 0 0 0 0 0 0 0 0 0 0 0 0 0 0 0 0 0 0 0 0 0 0 0 0 0
0 0 0 0 0 0 0 0 0 0 0 0 0 0 0 0 0 0 0 0 0 0 0 0 0 0 0 0 0 0 0 0 0 0 0 0 0 0 0 0 0 0 0 0
0 0 0 0 0 0 0 0 0 0 0 0 0 0 0 0 0 0 0 0 0 0 0 0 0 0 0 0 0 0 0 0 0 0 0 0 0 0 0 0 0 0 0 0
0 0 0 0 0 0 0 0 0 0 0 0 0 0 0 0 0 0 0 0 0 0 0 0 0 0 0 0 0 0 0 0 0 0 0 0 0 0 0 0 0 0 0 0
0 0 0 0 0 0 0 0 0 0 0 0 0 0 0 0 0 0 0 0 0 0 0 0 0 0 0 0 0 0 0 0 0 0 0 0 0 0 0 0 0 0 0 0
0 0 0 0 0 0 0 0 0 0 0 0 0 0 0 0 0 0 0 0 0 0 0 0 0 0 0 0 0 0 0 0 0 0 0 0 0 0 0 0 0 0 0 0
0 0 0 0 0 0 0 0 0 0 0 0 0 0 0 0 0 0 0 0 0 0 0 0 0 0 0 0 0 0 0 0 0 0 0 0 0 0 0 0 0 0 0 0
0 0 0 0 0 0 0 0 0 0 0 0 0 0 0 0 0 0 0 0 0 0 0 0 0 0 0 0 0 0 0 0 0 0 0 0 0 0 0 0 0 0 0 0
0 0 0 0 0 0 0 0 0 0 0 0 0 0 0 0 0 0 0 0 0 0 0 0 0 0 0 0 0 0 0 0 0 0 0 0 0 0 0 0 0 0 0 0
0 0 0 0 0 0 0 0 0 0 0 0 0 0 0 0 0 0 0 0 0 0 0 0 0 0 0 0 0 0 0 0 0 0 0 0 0 0 0 0 0 0 0 0
0 0 0 0 0 0 0 0 0 0 0 0 0 0 0 0 0 0 0 0 0 0 0 0 0 0 0 0 0 0 0 0 0 0 0 0 0 0 0 0 0 0 0 0
Wind_Speed
10 12 11 12 14 13 12 12 15 17 18 16 7 3 3 3 2 2 2 3 2 2 2 3 3 3 4 4 4 3 4 5 6 6 6 6 6 7 7 7 8 8 9 9
7 9 10 15 18 17 17 17 19 19 18 3 4 5 4 3 1 1 2 2 2 2 4 5 5 5 5 5 5 4 5 7 7 7 8 8 8 8 8 8 8 8 9 10
6 5 5 13 15 16 14 12 12 13 4 4 3 3 3 2 3 3 3 3 3 4 5 5 5 5 5 5 4 5 6 8 8 9 10 10 9 9 9 9 9 11 11 11
4 1 11 13 5 5 6 6 4 1 3 3 1 1 2 4 5 4 3 3 4 4 4 4 3 2 2 3 5 6 8 9 9 10 11 11 11 11 10 9 10 12 13 13
4 7 10 9 4 1 3 6 1 3 4 2 1 3 5 4 0 2 3 4 4 4 4 3 3 3 3 5 6 7 8 8 8 8 9 10 12 13 11 11 12 13 14 15
6 6 9 6 2 2 2 6 4 5 5 3 2 3 5 4 4 5 5 4 3 2 3 3 4 4 5 6 7 7 8 9 9 9 10 12 13 14 13 13 15 17 18 17
9 8 9 4 4 4 4 8 5 5 6 6 6 7 7 6 6 6 4 1 3 3 3 4 5 6 7 7 8 8 10 11 12 11 12 13 14 14 14 16 18 19 21 21
7 7 10 4 6 7 7 4 6 6 7 7 7 7 7 7 6 3 1 3 4 4 4 4 5 6 8 9 10 11 11 13 12 12 12 12 14 15 15 16 18 19 19 21
9 9 6 9 8 8 5 6 7 8 8 8 8 8 7 6 3 1 2 2 3 4 5 5 4 5 8 11 12 12 11 12 12 13 11 11 13 15 14 13 14 16 16 17
6 8 8 8 9 9 9 10 10 9 8 7 8 8 6 4 2 0 2 2 3 4 6 6 5 5 5 10 11 9 11 13 13 13 13 12 11 12 12 13 14 15 16 17
12 12 11 12 13 12 11 10 10 8 7 8 7 7 5 3 1 1 2 3 3 5 7 8 7 7 7 8 8 10 12 14 14 13 13 12 12 12 15 14 17 19 16 16
12 11 10 10 10 9 9 9 8 7 7 5 5 4 2 2 1 1 2 3 5 6 7 8 8 9 8 7 8 11 13 13 12 12 12 13 13 14 22 26 31 35 34 32
14 12 12 12 11 10 9 8 6 5 5 4 3 3 2 1 1 1 2 4 5 6 7 8 9 10 9 8 8 9 12 14 12 13 13 13 14 14 16 19 27 32 33 35
13 12 13 12 11 7 5 3 3 3 3 3 4 4 2 1 1 2 3 4 5 6 7 8 9 10 8 8 8 10 12 13 13 12 12 13 13 14 15 16 17 16 22 30
14 11 10 6 3 3 4 5 4 4 5 4 4 3 2 1 2 3 4 5 6 7 8 7 9 10 8 7 9 11 11 10 10 11 11 12 13 13 14 15 15 16 15 18
8 3 2 3 5 5 5 5 5 5 5 4 3 2 1 1 3 5 6 6 6 8 8 9 10 9 7 9 10 10 9 14 13 11 11 11 12 12 13 14 14 14 14 14
6 6 6 6 7 6 6 5 4 3 3 3 2 1 1 3 5 6 7 6 7 8 8 9 9 8 8 8 9 9 9 10 12 11 10 11 11 12 12 13 13 13 13 16
3 3 4 4 4 5 5 5 4 3 2 2 1 1 3 5 6 7 7 7 7 8 8 7 7 8 7 8 8 7 8 8 8 9 9 10 11 11 11 12 12 13 12 14
6 6 7 7 6 5 4 4 3 2 1 1 2 4 4 6 6 7 7 7 7 8 6 4 11 9 8 9 9 5 7 8 8 8 8 11 11 10 10 11 11 12 12 12
7 7 6 6 5 4 3 2 1 1 2 2 3 4 6 7 7 7 7 7 7 6 5 6 7 7 7 7 9 5 6 7 8 8 8 8 9 10 10 11 11 11 11 11
7 6 5 4 3 2 1 1 2 3 4 3 4 6 7 7 7 6 6 7 5 4 4 7 5 5 6 6 7 5 5 6 6 7 7 8 8 9 9 10 10 11 11 11
5 5 4 3 2 0 1 1 3 4 4 5 6 6 6 7 8 7 7 7 5 4 4 4 4 6 8 7 4 5 5 6 6 6 6 7 7 8 9 10 10 10 10 10
5 4 3 2 1 1 3 3 4 5 6 6 7 7 7 6 5 5 5 3 2 5 5 4 7 9 8 4 4 5 5 5 5 5 6 6 7 7 8 9 9 9 9 10
4 3 2 2 1 1 3 4 4 4 6 6 7 7 6 5 4 4 4 4 5 6 4 6 9 9 7 4 4 4 5 5 5 5 5 6 6 6 6 7 8 8 8 10
4 3 2 2 2 2 3 3 4 4 5 4 5 5 4 3 3 3 3 4 6 6 4 6 9 9 5 4 4 4 4 4 5 5 5 5 6 6 6 6 7 7 7 8
3 2 2 2 2 2 2 2 2 3 3 3 3 3 2 2 3 3 3 4 4 5 4 3 4 5 4 4 4 5 5 5 5 4 5 5 6 6 6 7 8 7 7 7
2 2 1 1 1 1 1 2 2 3 3 3 4 3 3 3 3 3 4 4 4 4 4 4 4 4 4 4 5 5 4 4 4 4 4 5 5 5 6 7 7 7 7 7
Wind_Direction
268 279 290 289 282 277 266 262 266 273 276 283 292 266 178 152 142 173 222 234 226 200 241 269 276 280 286 291 292 291 295 294 288 286 286 284 283 283 285 286 286 287 290 290
276 269 275 274 269 267 269 266 267 271 275 336 61 63 75 81 73 280 284 287 273 245 248 249 250 255 262 269 273 276 281 282 284 288 287 284 282 282 284 284 283 284 283 282
255 264 282 259 245 246 246 246 260 272 280 81 59 50 39 2 306 290 293 296 291 277 265 257 246 245 257 265 276 282 280 281 284 284 283 281 280 279 280 282 283 285 283 279
257 270 236 239 233 228 258 266 284 297 144 134 119 343 303 269 260 265 282 292 291 287 288 285 286 302 309 299 289 279 276 275 276 277 279 282 281 281 282 284 285 286 287 285
214 233 261 267 261 263 258 271 229 160 161 165 281 307 284 278 337 312 291 278 270 273 286 317 353 1 335 306 292 285 281 283 288 292 293 294 291 290 291 291 288 285 284 282
214 225 238 239 126 88 38 273 217 167 179 219 286 287 273 302 311 293 279 271 280 316 356 10 6 359 330 309 304 301 309 315 318 319 316 310 304 302 300 295 290 290 286 284
226 237 251 243 143 121 209 250 187 172 200 225 238 238 259 281 277 269 270 316 24 22 16 13 9 355 325 315 314 324 329 326 324 326 320 311 306 303 301 296 292 288 286 284
200 218 248 192 148 193 221 179 194 213 227 239 250 263 272 275 274 282 0 43 34 10 353 3 5 352 325 318 325 329 328 323 317 311 306 303 298 296 294 291 288 285 283 282
196 210 219 179 194 216 225 234 241 244 251 250 257 263 266 269 275 346 60 40 36 9 335 338 2 359 324 321 326 325 320 310 305 301 296 293 291 293 292 288 285 286 285 285
243 244 249 240 235 234 235 242 251 252 252 248 254 260 261 257 257 344 36 34 19 348 321 319 340 339 321 320 322 315 308 306 305 303 299 294 290 290 289 288 286 285 285 285
238 243 252 253 252 252 254 254 255 252 246 244 248 250 242 229 186 71 7 8 351 325 310 312 323 319 316 314 314 309 306 305 304 300 298 296 292 286 287 278 278 284 281 278
242 237 238 245 242 237 237 242 242 243 244 226 214 224 199 178 124 64 354 342 318 308 306 309 312 309 310 308 305 305 307 306 304 302 299 297 296 294 291 292 293 292 290 288
248 250 250 254 256 252 244 241 229 219 219 204 158 136 135 136 68 30 321 301 300 304 304 304 304 303 303 299 296 296 298 301 300 298 298 297 298 298 299 299 296 296 295 294
240 243 247 247 249 245 222 176 131 125 120 122 117 107 107 119 298 281 286 301 307 303 296 293 294 295 296 297 298 297 296 295 294 293 294 295 296 297 297 299 301 299 298 298
244 238 242 249 214 145 130 129 145 173 162 148 127 132 158 236 270 290 306 309 303 293 288 290 294 297 299 302 301 299 298 295 293 293 295 296 297 297 297 297 298 300 301 304
243 210 197 210 205 176 160 170 189 195 170 159 150 156 128 330 305 297 293 292 290 291 295 296 295 298 305 306 304 302 297 296 300 299 300 301 303 303 305 305 307 309 312 316
200 222 211 214 209 190 177 172 170 154 135 142 143 107 4 304 293 285 282 278 271 275 281 284 290 298 302 302 303 303 302 302 303 304 305 306 308 310 311 312 314 316 318 320
149 125 137 159 173 164 149 135 124 118 125 127 121 244 270 271 273 279 284 290 290 286 280 273 284 300 307 303 299 302 305 306 308 308 310 312 313 314 315 318 320 322 324 327
104 102 92 84 74 88 101 107 107 109 114 175 244 255 259 264 267 274 282 288 289 290 285 295 316 323 304 299 316 312 307 309 312 312 313 316 319 322 323 325 327 328 330 334
105 102 102 99 90 96 110 116 124 233 256 251 253 264 270 269 268 271 272 269 260 257 279 303 305 298 296 309 326 308 305 312 316 319 322 325 326 327 329 331 332 334 337 340
128 122 119 117 109 97 114 168 222 253 264 254 247 255 262 270 272 269 267 275 269 258 286 299 296 298 302 316 316 307 310 314 318 322 326 328 329 331 334 336 338 341 344 346
133 129 127 120 121 234 271 246 240 253 266 266 258 255 261 269 268 261 247 250 261 289 301 294 295 298 315 324 313 312 316 319 322 325 328 331 333 335 337 339 341 344 346 349
127 132 138 152 189 272 300 278 249 243 249 253 255 254 251 255 260 268 278 262 274 298 305 297 302 311 334 329 314 316 319 322 326 328 328 328 331 332 334 338 340 343 346 349
132 140 148 148 145 265 285 277 258 246 246 250 250 247 246 260 267 255 258 291 302 308 308 302 309 327 340 321 314 317 317 319 321 321 323 324 327 330 333 336 338 340 343 345
137 144 158 173 209 236 255 282 292 286 276 268 272 264 243 243 264 286 295 292 301 311 308 313 321 326 323 307 311 311 310 310 314 317 321 325 326 327 328 331 333 333 336 338
153 173 184 200 215 237 278 296 295 298 308 307 303 298 299 294 292 292 293 296 302 304 301 302 305 306 301 302 303 303 304 309 314 317 318 318 319 322 324 326 326 326 325 324
166 175 183 239 225 225 268 286 288 296 303 299 300 303 310 303 297 301 303 301 303 301 297 296 295 292 290 291 292 292 295 296 298 301 304 305 306 308 312 314 312 311 313 315